Weather in Bandar Seri Begawan

Brunei     4°55′46″N   114°55′06″E
temp.,
°C
wind,
m/s
gust,
m/s
humid.,
%
clouds,
%
prec.,
mm/h
press.,
hPa
HPBL,
m
26 february, fri
fri2623:00+25sw228634 0.0 1009251
02:00+24ssw239127 0.0 1008153
05:00+24ssw349166 0.0 1007194
08:00+25ssw348544 0.0 1009246
11:00+29w236183 0.0 1009771
14:00+29wnw666865 0.0 1007717
17:00+27wnw568175 0.0 1006644
20:00+26nw238687 1.8 1009299
27 february, sat
sat2723:00+24ese1295100 8.5 1010138
02:00+24e1194100 11.6 1009148
05:00+25se2290100 0.0 1008230
08:00+25ese2288100 0.1 1010275
11:00+27ene227557 0.0 1009461
14:00+27n447733 0.1 1007417
17:00+27nnw4577100 0.0 1006443
20:00+26nne2382100 0.3 1009331
28 february, sun
sun2823:00+26ne1279100 0.1 1010347
02:00+26se118286 0.1 1009205
05:00+25sse229133 0.1 1008182
08:00+26sse128337 0.1 1011182
11:00+28ne11710 0.0 1011526
14:00+29nnw44716 0.0 1008484
17:00+28n347457 0.1 1007505
20:00+27nne358279 0.1 1009318
1 march, mon
mon123:00+27ne348782 3.2 1010224
02:00+26sse229042 5.1 1009138
05:00+25s339116 1.0 1009135
08:00+25s238918 1.1 1011183
11:00+29e12690 0.0 1012496
14:00+28nnw33811 1.6 1009223
17:00+28nw468462 1.3 1008308
20:00+27nne338777 3.3 1010176
2 march, tue
tue223:00+27ene118798 0.1 1012125
02:00+26se228999 1.1 1010121
05:00+25s229186 0.7 1010109
08:00+26ssw228948 0.8 1012150
11:00+29nnw017156 0.0 1012523
14:00+28nw448141 0.6 1009422
17:00+28nw458377 1.8 1009274
20:00+27nne128584 2.3 101178